period_start,C,m1,H,J0,J1,J2,J3,J4,J5,JA,JB,JC,JD,JJ,JK,JN,#
2015-10-16 00:00:18,0.00,0.21,0.00,20.87,26.47,30.09,14.83,47.84,1021.01,2040.05,3492.99,3241.00,3524.02,600.10,602.97,10.18,0000 0000 0000 0000 000000
2015-10-16 00:05:19,0.00,0.21,0.00,20.87,26.48,30.08,14.77,47.92,1021.01,2040.08,3492.92,3241.00,3524.00,600.10,603.07,10.23,0000 0000 0000 0000 000000
2015-10-16 00:10:21,0.01,0.21,0.00,20.86,26.50,30.13,14.80,47.88,1021.01,2040.04,3492.38,3240.91,3523.98,599.79,602.74,10.28,0000 0000 0000 0000 000000
2015-10-16 00:15:22,0.00,0.21,0.00,20.87,26.50,30.17,14.82,47.77,1020.99,2040.02,3492.06,3240.76,3523.97,600.12,603.07,10.33,0000 0000 0000 0000 000000
2015-10-16 00:20:23,0.02,0.22,0.00,20.89,26.50,30.15,14.81,47.80,1020.98,2040.02,3492.01,3240.24,3523.60,600.10,603.07,10.38,0000 0000 0000 0000 000000
2015-10-16 00:25:24,0.01,0.22,0.00,20.92,26.51,30.11,14.77,47.91,1021.00,2040.01,3491.97,3240.03,3523.06,599.80,602.63,10.43,0000 0000 0000 0000 000000
2015-10-16 00:30:25,0.00,0.22,0.00,20.92,26.52,30.10,14.84,47.84,1021.00,2040.00,3491.97,3240.00,3523.00,600.28,603.19,10.48,0000 0000 0000 0000 000000
2015-10-16 00:35:27,0.00,0.22,0.00,20.92,26.52,30.14,14.87,47.91,1021.00,2040.01,3491.82,3240.00,3523.00,600.12,602.91,10.53,0000 0000 0000 0000 000000
2015-10-16 00:40:28,0.00,0.22,0.00,20.92,26.54,30.20,14.79,47.93,1021.01,2040.00,3491.24,3240.00,3522.99,600.09,602.84,10.58,0000 0000 0000 0000 000000
2015-10-16 00:45:29,0.00,0.22,0.00,20.95,26.55,30.19,14.76,47.89,1021.01,2040.00,3491.07,3240.00,3522.98,599.76,602.57,10.63,0000 0000 0000 0000 000000
2015-10-16 00:50:30,0.00,0.22,0.00,20.99,26.56,30.12,14.81,47.93,1021.01,2040.00,3491.01,3239.99,3522.94,599.97,602.69,10.68,0000 0000 0000 0000 000000
2015-10-16 00:55:32,0.02,0.22,0.00,21.01,26.57,30.13,14.73,47.97,1021.01,2040.00,3491.00,3239.71,3522.46,599.98,602.65,10.73,0000 0000 0000 0000 000000
2015-10-16 01:00:33,0.01,0.22,0.00,21.01,26.57,30.17,14.81,47.78,1021.01,2040.00,3490.91,3239.26,3522.10,600.21,602.85,10.78,0000 0000 0000 0000 000000
2015-10-16 01:05:34,0.01,0.22,0.00,21.01,26.57,30.14,14.74,47.77,1021.01,2040.00,3490.27,3239.01,3522.00,599.84,602.55,10.83,0000 0000 0000 0000 000000
2015-10-16 01:10:35,0.00,0.22,0.00,21.03,26.59,30.17,14.83,47.83,1021.01,2040.00,3490.01,3239.00,3521.98,599.87,602.48,10.88,0000 0000 0000 0000 000000
2015-10-16 01:15:37,0.00,0.22,0.00,21.06,26.60,30.20,14.81,47.83,1021.01,2040.00,3489.99,3238.98,3521.79,600.03,602.67,10.93,0000 0000 0000 0000 000000
2015-10-16 01:20:38,0.01,0.22,0.00,21.09,26.62,30.19,14.76,47.77,1021.01,2040.00,3489.91,3238.95,3521.43,599.90,602.42,10.98,0000 0000 0000 0000 000000
2015-10-16 01:25:39,0.03,0.22,0.00,21.13,26.62,30.14,14.70,47.91,1021.01,2039.99,3489.31,3238.48,3521.04,599.81,602.26,11.03,0000 0000 0000 0000 000000
2015-10-16 01:30:41,0.00,0.22,0.00,21.17,26.64,30.17,14.76,47.85,1021.01,2039.98,3489.00,3238.04,3520.99,599.87,602.18,11.08,0000 0000 0000 0000 000000
2015-10-16 01:35:42,0.00,0.22,0.00,21.17,26.65,30.17,14.84,47.92,1021.01,2039.98,3488.92,3238.00,3520.92,599.90,602.29,11.14,0000 0000 0000 0000 000000
2015-10-16 01:40:43,0.04,0.22,0.00,21.19,26.67,30.14,14.76,47.88,1021.01,2039.98,3488.14,3237.75,3520.13,599.93,602.18,11.19,0000 0000 0000 0000 000000
2015-10-16 01:45:44,0.01,0.23,0.00,21.23,26.69,30.18,14.71,47.87,1021.01,2039.96,3487.95,3237.04,3519.96,599.68,602.01,11.24,0000 0000 0000 0000 000000
2015-10-16 01:50:46,0.09,0.23,0.00,21.27,26.70,30.16,14.72,47.92,1021.00,2039.97,3486.47,3235.96,3518.63,599.79,601.92,11.29,0000 0000 0000 0000 000000
2015-10-16 01:55:47,0.15,0.24,0.00,21.27,26.72,30.19,14.73,47.83,1020.94,2039.94,3484.04,3232.99,3515.75,600.03,602.13,11.34,0000 0000 0000 0000 000000
2015-10-16 02:00:49,0.08,0.24,0.00,21.28,26.73,30.21,14.79,47.88,1020.92,2039.94,3482.59,3231.19,3513.78,600.16,602.25,11.39,0000 0000 0000 0000 000000
2015-10-16 02:05:49,0.06,0.24,0.00,21.30,26.75,30.24,14.77,47.81,1020.88,2039.89,3481.51,3229.87,3512.49,600.20,602.22,11.44,0000 0000 0000 0000 000000
2015-10-16 02:10:51,0.04,0.25,0.00,21.33,26.77,30.21,14.77,47.85,1020.84,2039.74,3480.57,3228.61,3511.34,599.67,601.56,11.49,0000 0000 0000 0000 000000
2015-10-16 02:15:52,0.05,0.25,0.00,21.32,26.78,30.22,14.83,47.83,1020.74,2039.61,3479.77,3227.63,3510.23,600.47,602.31,11.54,0000 0000 0000 0000 000000
2015-10-16 02:20:53,0.03,0.25,0.00,21.52,26.80,30.08,14.71,47.72,1020.68,2039.33,3478.57,3226.36,3508.83,599.77,601.24,11.59,0000 0000 0000 0000 000000
2015-10-16 02:25:54,0.05,0.25,0.00,21.82,26.83,29.99,14.63,47.74,1020.61,2039.06,3477.36,3224.86,3507.33,599.98,600.87,11.64,0000 0000 0000 0000 000000
2015-10-16 02:30:56,0.04,0.26,0.00,21.70,26.86,30.05,14.75,47.74,1020.58,2039.01,3476.54,3223.90,3506.27,600.25,601.20,11.69,0000 0000 0000 0000 000000
2015-10-16 02:35:57,0.03,0.26,0.00,21.60,26.88,30.10,14.76,47.63,1020.55,2039.00,3476.00,3223.08,3505.49,600.25,601.31,11.74,0000 0000 0000 0000 000000
2015-10-16 02:40:58,0.01,0.26,0.00,21.57,26.90,30.12,14.64,47.63,1020.55,2039.00,3475.54,3222.93,3505.01,599.68,601.00,11.79,0000 0000 0000 0000 000000
2015-10-16 02:45:59,0.03,0.26,0.00,21.56,26.92,30.18,14.75,47.77,1020.54,2039.00,3475.02,3222.26,3504.82,599.90,601.17,11.84,0000 0000 0000 0000 000000
2015-10-16 02:51:01,0.01,0.26,0.00,21.52,26.93,30.21,14.71,47.66,1020.54,2038.99,3474.99,3222.00,3504.10,599.73,601.05,11.89,0000 0000 0000 0000 000000
2015-10-16 02:56:02,0.00,0.26,0.00,21.50,26.95,30.23,14.68,47.66,1020.54,2038.99,3474.78,3222.00,3504.00,599.99,601.28,11.94,0000 0000 0000 0000 000000
2015-10-16 03:01:03,0.01,0.26,0.00,21.52,26.97,30.29,14.72,47.69,1020.54,2038.94,3474.07,3221.83,3503.93,600.17,601.48,11.99,0000 0000 0000 0000 000000
2015-10-16 03:06:04,0.02,0.26,0.00,21.49,26.97,30.31,14.71,47.75,1020.54,2038.79,3474.00,3221.24,3503.50,599.93,601.35,12.04,0000 0000 0000 0000 000000
2015-10-16 03:11:06,0.02,0.26,0.00,21.65,27.00,30.23,14.73,47.70,1020.54,2038.51,3473.49,3220.52,3502.54,600.34,601.36,12.09,0000 0000 0000 0000 000000
2015-10-16 03:16:07,-0.02,0.26,0.00,21.96,27.01,30.14,14.72,47.67,1020.54,2038.18,3472.99,3220.00,3502.00,600.08,600.50,12.14,0000 0000 0000 0000 000000
2015-10-16 03:21:08,-0.00,0.26,0.00,21.84,27.03,30.18,14.61,47.73,1020.55,2038.05,3472.79,3219.97,3501.94,599.80,600.72,12.19,0000 0000 0000 0000 000000
2015-10-16 03:26:09,0.03,0.26,0.00,21.74,27.05,30.24,14.74,47.75,1020.53,2038.03,3472.14,3219.67,3501.53,600.10,600.94,12.24,0000 0000 0000 0000 000000
2015-10-16 03:31:10,0.01,0.27,0.00,21.71,27.06,30.26,14.68,47.78,1020.52,2038.01,3472.01,3219.09,3501.03,600.09,601.06,12.29,0000 0000 0000 0000 000000
2015-10-16 03:36:11,0.00,0.27,0.00,21.67,27.07,30.29,14.61,47.67,1020.52,2038.00,3472.00,3219.00,3501.00,599.86,600.85,12.34,0000 0000 0000 0000 000000
2015-10-16 03:41:13,0.00,0.27,0.00,21.64,27.08,30.35,14.74,47.66,1020.52,2038.00,3471.91,3219.00,3500.97,599.94,601.00,12.39,0000 0000 0000 0000 000000
2015-10-16 03:46:14,0.01,0.27,0.00,21.64,27.10,30.37,14.63,47.67,1020.52,2038.00,3471.48,3218.99,3500.82,599.73,600.72,12.44,0000 0000 0000 0000 000000
2015-10-16 03:51:15,0.01,0.27,0.00,21.72,27.10,30.31,14.71,47.74,1020.52,2037.99,3471.04,3218.87,3500.18,600.16,601.03,12.49,0000 0000 0000 0000 000000
2015-10-16 03:56:16,0.01,0.27,0.00,22.01,27.12,30.22,14.62,47.59,1020.52,2037.98,3471.00,3218.31,3500.00,600.02,600.39,12.54,0000 0000 0000 0000 000000
2015-10-16 04:01:18,0.01,0.27,0.00,21.96,27.14,30.25,14.65,47.67,1020.52,2037.96,3470.80,3218.02,3499.95,599.93,600.32,12.59,0000 0000 0000 0000 000000
2015-10-16 04:06:19,0.00,0.27,0.00,21.85,27.15,30.30,14.80,47.73,1020.52,2037.90,3470.15,3218.00,3499.59,600.20,600.97,12.64,0000 0000 0000 0000 000000
2015-10-16 04:11:20,-0.02,0.27,0.00,21.80,27.16,30.34,14.71,47.70,1020.52,2037.60,3470.01,3217.94,3499.04,600.05,600.78,12.69,0000 0000 0000 0000 000000
2015-10-16 04:16:21,0.01,0.27,0.00,21.78,27.17,30.38,14.74,47.69,1020.52,2037.57,3470.00,3217.78,3499.01,600.06,600.90,12.74,0000 0000 0000 0000 000000
2015-10-16 04:21:23,-0.02,0.27,0.00,21.75,27.17,30.40,14.75,47.67,1020.52,2037.29,3469.91,3217.23,3498.98,599.99,600.78,12.79,0000 0000 0000 0000 000000
2015-10-16 04:26:24,0.00,0.27,0.00,21.79,27.19,30.37,14.74,47.72,1020.52,2037.11,3469.36,3217.04,3498.91,600.17,601.05,12.84,0000 0000 0000 0000 000000
2015-10-16 04:31:25,0.01,0.27,0.00,22.13,27.20,30.27,14.56,47.56,1020.52,2037.06,3469.03,3217.00,3498.31,599.45,599.52,12.89,0000 0000 0000 0000 000000
2015-10-16 04:36:27,-0.00,0.27,0.00,22.11,27.22,30.30,14.68,47.56,1020.52,2037.04,3469.00,3217.00,3498.06,599.89,600.11,12.94,0000 0000 0000 0000 000000
2015-10-16 04:41:28,0.00,0.27,0.00,21.97,27.24,30.37,14.66,47.63,1020.52,2037.02,3468.99,3216.96,3498.00,599.96,600.34,12.99,0000 0000 0000 0000 000000
2015-10-16 04:46:29,0.00,0.27,0.00,21.92,27.25,30.39,14.69,47.77,1020.52,2037.02,3468.86,3216.94,3498.00,600.23,600.74,13.04,0000 0000 0000 0000 000000
2015-10-16 04:51:30,0.02,0.27,0.00,21.90,27.26,30.40,14.69,47.77,1020.52,2037.00,3468.33,3216.59,3497.97,600.21,600.78,13.09,0000 0000 0000 0000 000000
2015-10-16 04:56:31,0.02,0.27,0.00,22.12,27.27,30.35,14.72,47.67,1020.52,2037.00,3468.03,3216.09,3497.73,599.65,599.76,13.14,0000 0000 0000 0000 000000
2015-10-16 05:01:32,0.01,0.27,0.00,22.22,27.30,30.34,14.65,47.58,1020.52,2037.00,3468.00,3216.00,3497.04,599.75,599.82,13.19,0000 0000 0000 0000 000000
2015-10-16 05:06:34,0.00,0.27,0.00,22.08,27.31,30.39,14.60,47.64,1020.51,2037.00,3467.95,3215.97,3497.00,599.52,599.79,13.24,0000 0000 0000 0000 000000
2015-10-16 05:11:35,0.02,0.27,0.00,22.03,27.32,30.39,14.69,47.69,1020.50,2036.98,3467.33,3215.64,3496.85,599.81,600.09,13.29,0000 0000 0000 0000 000000
2015-10-16 05:16:36,0.02,0.27,0.00,22.10,27.35,30.41,14.70,47.72,1020.45,2036.94,3467.01,3215.07,3496.14,600.11,600.23,13.34,0000 0000 0000 0000 000000
2015-10-16 05:21:38,-0.04,0.27,0.00,22.24,27.37,30.39,14.63,47.58,1020.38,2036.69,3467.00,3215.00,3496.00,599.77,599.49,13.39,0000 0000 0000 0000 000000
2015-10-16 05:26:39,-0.00,0.27,0.00,22.18,27.39,30.41,14.64,47.62,1020.41,2036.55,3466.94,3215.00,3496.00,599.83,599.79,13.44,0000 0000 0000 0000 000000
2015-10-16 05:31:40,-0.00,0.27,0.00,22.16,27.40,30.43,14.63,47.58,1020.38,2036.40,3466.35,3214.94,3495.81,600.13,600.03,13.50,0000 0000 0000 0000 000000
2015-10-16 05:36:41,0.01,0.27,0.00,22.20,27.42,30.44,14.70,47.62,1020.37,2036.08,3466.00,3214.31,3495.14,600.10,599.96,13.55,0000 0000 0000 0000 000000
2015-10-16 05:41:42,0.01,0.27,0.00,22.18,27.45,30.46,14.68,47.58,1020.39,2036.04,3465.53,3214.01,3494.96,599.83,599.67,13.60,0000 0000 0000 0000 000000
2015-10-16 05:46:44,0.01,0.27,0.00,22.15,27.46,30.48,14.66,47.67,1020.38,2036.02,3465.03,3213.89,3494.31,600.02,599.92,13.65,0000 0000 0000 0000 000000
2015-10-16 05:51:45,0.01,0.27,0.00,22.18,27.47,30.49,14.57,47.54,1020.42,2036.01,3464.99,3213.47,3494.03,599.40,599.30,13.70,0000 0000 0000 0000 000000
2015-10-16 05:56:46,0.00,0.27,0.00,22.21,27.49,30.51,14.62,47.60,1020.36,2036.00,3464.95,3213.05,3494.00,599.63,599.46,13.75,0000 0000 0000 0000 000000
2015-10-16 06:01:48,0.01,0.28,0.00,22.32,27.51,30.53,14.60,47.53,1020.25,2036.00,3464.42,3213.00,3493.96,599.97,599.50,13.80,0000 0000 0000 0000 000000
2015-10-16 06:06:49,0.01,0.28,0.00,22.32,27.53,30.54,14.66,47.48,1020.16,2036.00,3464.09,3213.00,3493.53,600.26,599.79,13.85,0000 0000 0000 0000 000000
2015-10-16 06:11:50,0.01,0.28,0.00,22.32,27.55,30.55,14.67,47.61,1020.07,2035.99,3463.87,3212.69,3493.02,599.99,599.45,13.90,0000 0000 0000 0000 000000
2015-10-16 06:16:52,0.02,0.28,0.00,22.29,27.56,30.57,14.63,47.46,1020.05,2035.95,3463.17,3212.05,3492.96,599.74,599.32,13.95,0000 0000 0000 0000 000000
2015-10-16 06:21:53,-0.00,0.28,0.00,22.32,27.57,30.60,14.60,47.51,1020.09,2035.88,3463.01,3212.00,3492.75,599.45,598.87,14.00,0000 0000 0000 0000 000000
2015-10-16 06:26:55,0.00,0.28,0.00,22.33,27.60,30.61,14.65,47.42,1020.06,2035.78,3463.00,3212.00,3492.25,600.04,599.49,14.05,0000 0000 0000 0000 000000
2015-10-16 06:31:56,-0.03,0.28,0.00,22.39,27.60,30.62,14.66,47.58,1020.11,2035.48,3462.97,3211.98,3492.02,599.97,599.39,14.10,0000 0000 0000 0000 000000
2015-10-16 06:36:57,0.00,0.28,0.00,22.42,27.62,30.62,14.60,47.51,1020.10,2035.22,3462.46,3211.83,3492.00,599.69,598.86,14.15,0000 0000 0000 0000 000000
2015-10-16 06:41:59,0.01,0.28,0.00,22.37,27.63,30.62,14.67,47.56,1020.08,2035.08,3462.03,3211.21,3491.98,600.18,599.54,14.20,0000 0000 0000 0000 000000
2015-10-16 06:47:00,0.00,0.28,0.00,22.35,27.65,30.62,14.64,47.57,1020.05,2035.07,3462.00,3211.06,3491.81,600.14,599.47,14.25,0000 0000 0000 0000 000000
2015-10-16 06:52:01,0.01,0.28,0.00,22.38,27.65,30.64,14.70,47.54,1020.05,2035.03,3462.00,3211.01,3491.15,600.49,599.77,14.30,0000 0000 0000 0000 000000
2015-10-16 06:57:02,0.00,0.28,0.00,22.39,27.67,30.65,14.66,47.46,1020.06,2035.01,3461.69,3211.00,3491.02,600.00,599.32,14.35,0000 0000 0000 0000 000000
2015-10-16 07:02:03,0.01,0.28,0.00,22.39,27.67,30.66,14.63,47.48,1020.05,2035.01,3461.10,3210.97,3491.00,599.75,599.06,14.40,0000 0000 0000 0000 000000
2015-10-16 07:07:05,0.03,0.28,0.00,22.43,27.69,30.65,14.64,47.44,1020.04,2035.00,3460.96,3210.43,3490.64,600.13,599.31,14.45,0000 0000 0000 0000 000000
2015-10-16 07:12:06,0.02,0.28,0.00,22.54,27.70,30.65,14.66,47.65,1020.04,2035.00,3460.21,3210.01,3490.02,600.21,599.12,14.50,0000 0000 0000 0000 000000
2015-10-16 07:17:08,0.05,0.28,0.00,22.54,27.71,30.67,14.62,47.43,1020.04,2035.00,3459.31,3209.36,3489.35,600.21,599.18,14.55,0000 0000 0000 0000 000000
2015-10-16 07:22:09,0.07,0.29,0.00,22.47,27.72,30.66,14.61,47.52,1020.04,2034.99,3457.82,3208.36,3488.12,600.13,599.18,14.60,0000 0000 0000 0000 000000
2015-10-16 07:27:10,0.06,0.29,0.00,22.56,27.72,30.66,14.64,47.58,1020.04,2034.98,3456.18,3207.12,3486.81,599.85,598.77,14.65,0000 0000 0000 0000 000000
2015-10-16 07:32:12,0.06,0.29,0.00,22.51,27.72,30.66,14.68,47.52,1020.04,2034.97,3454.79,3206.16,3485.84,600.08,599.10,14.70,0000 0000 0000 0000 000000
2015-10-16 07:37:13,0.09,0.30,0.00,22.49,27.72,30.69,14.57,47.42,1020.03,2034.95,3452.54,3204.94,3484.51,599.57,598.64,14.75,0000 0000 0000 0000 000000
2015-10-16 07:42:14,0.14,0.30,0.00,22.56,27.72,30.69,14.67,47.49,1020.02,2034.93,3448.80,3203.04,3482.45,600.28,599.14,14.80,0000 0000 0000 0000 000000
2015-10-16 07:47:15,0.16,0.31,0.00,22.61,27.72,30.70,14.67,47.54,1020.00,2034.91,3444.50,3200.83,3480.13,600.38,599.09,14.85,0000 0000 0000 0000 000000
2015-10-16 07:52:16,0.28,0.32,0.00,22.53,27.72,30.69,14.68,47.52,1020.03,2034.70,3437.47,3197.01,3476.00,600.43,599.42,14.90,0000 0000 0000 0000 000000
2015-10-16 07:57:18,0.40,0.34,0.00,22.48,27.72,30.70,14.56,47.40,1020.03,2034.29,3426.25,3191.25,3469.87,599.43,598.56,14.95,0000 0000 0000 0000 000000
2015-10-16 08:02:19,0.37,0.36,0.00,22.41,27.72,30.71,14.62,47.47,1020.02,2034.21,3415.70,3185.45,3463.78,600.20,599.27,15.00,0000 0000 0000 0000 000000
2015-10-16 08:07:20,0.46,0.38,0.00,22.50,27.72,30.69,14.60,47.33,1020.00,2034.11,3404.69,3178.96,3456.97,600.35,599.36,15.05,0000 0000 0000 0000 000000
2015-10-16 08:12:21,0.35,0.40,0.00,22.57,27.72,30.68,14.58,47.46,1019.95,2034.07,3395.45,3173.00,3450.82,600.06,598.90,15.10,0000 0000 0000 0000 000000
2015-10-16 08:17:23,0.29,0.42,0.00,22.52,27.71,30.70,14.69,47.43,1019.94,2034.08,3388.61,3168.30,3445.89,600.38,599.32,15.15,0000 0000 0000 0000 000000
2015-10-16 08:22:24,0.22,0.43,0.00,22.51,27.70,30.69,14.66,47.45,1019.91,2034.09,3383.18,3164.63,3442.07,599.71,598.62,15.20,0000 0000 0000 0000 000000
2015-10-16 08:27:26,0.18,0.44,0.00,22.44,27.70,30.68,14.60,47.46,1019.86,2034.09,3378.67,3161.69,3439.02,599.64,598.71,15.25,0000 0000 0000 0000 000000
2015-10-16 08:32:27,0.08,0.45,0.00,22.40,27.70,30.70,14.65,47.44,1019.78,2034.09,3376.19,3160.06,3437.27,599.91,598.95,15.30,0000 0000 0000 0000 000000
2015-10-16 08:37:28,0.06,0.45,0.00,22.36,27.70,30.70,14.67,47.46,1019.75,2034.05,3374.67,3159.03,3436.15,599.97,598.95,15.35,0000 0000 0000 0000 000000
2015-10-16 08:42:29,0.10,0.45,0.00,22.49,27.70,30.69,14.65,47.49,1019.69,2034.09,3372.76,3157.77,3434.84,599.78,598.91,15.40,0000 0000 0000 0000 000000
2015-10-16 08:47:30,0.13,0.46,0.00,22.50,27.69,30.69,14.65,47.47,1019.73,2034.10,3369.68,3155.79,3432.76,599.75,598.64,15.45,0000 0000 0000 0000 000000
2015-10-16 08:52:31,0.17,0.47,0.00,22.41,27.68,30.70,14.63,47.46,1019.61,2034.08,3366.00,3153.34,3430.19,600.13,599.12,15.50,0000 0000 0000 0000 000000
2015-10-16 08:57:33,0.17,0.48,0.00,22.41,27.67,30.72,14.73,47.41,1019.60,2034.16,3362.27,3150.85,3427.56,600.25,599.23,15.55,0000 0000 0000 0000 000000
2015-10-16 09:02:34,0.16,0.49,0.00,22.36,27.67,30.69,14.65,47.41,1019.59,2034.20,3358.63,3148.52,3425.10,600.15,599.22,15.60,0000 0000 0000 0000 000000
2015-10-16 09:07:35,0.19,0.50,0.00,22.31,27.67,30.69,14.62,47.47,1019.59,2034.38,3354.47,3145.86,3422.30,599.82,598.94,15.65,0000 0000 0000 0000 000000
2015-10-16 09:12:36,0.19,0.50,0.00,22.43,27.67,30.68,14.60,47.42,1019.59,2034.40,3350.48,3143.14,3419.47,600.06,599.00,15.70,0000 0000 0000 0000 000000
2015-10-16 09:17:37,0.06,0.51,0.00,22.44,27.67,30.67,14.58,47.37,1019.60,2034.19,3347.79,3141.23,3417.33,599.42,598.43,15.75,0000 0000 0000 0000 000000
2015-10-16 09:22:39,0.10,0.51,0.00,22.31,27.66,30.67,14.63,47.38,1019.56,2034.11,3345.50,3139.80,3415.91,599.94,599.06,15.80,0000 0000 0000 0000 000000
2015-10-16 09:27:40,0.07,0.52,0.00,22.28,27.65,30.68,14.65,47.53,1019.56,2034.17,3343.71,3138.83,3414.82,600.05,599.22,15.85,0000 0000 0000 0000 000000
2015-10-16 09:32:41,0.08,0.52,0.00,22.24,27.65,30.69,14.69,47.44,1019.55,2034.34,3342.08,3137.81,3413.76,600.18,599.45,15.90,0000 0000 0000 0000 000000
2015-10-16 09:37:42,0.07,0.53,0.00,22.21,27.65,30.68,14.63,47.38,1019.55,2034.24,3340.38,3136.76,3412.43,599.88,599.23,15.96,0000 0000 0000 0000 000000
2015-10-16 09:42:43,0.02,0.53,0.00,22.21,27.64,30.68,14.63,47.44,1019.55,2034.09,3339.38,3135.98,3411.64,599.35,598.75,16.01,0000 0000 0000 0000 000000
2015-10-16 09:47:45,0.05,0.53,0.00,22.19,27.62,30.68,14.63,47.40,1019.55,2034.14,3337.89,3135.12,3410.92,599.90,599.35,16.06,0000 0000 0000 0000 000000
2015-10-16 09:52:46,0.03,0.53,0.00,22.18,27.62,30.68,14.64,47.42,1019.53,2034.15,3337.02,3134.90,3410.08,599.90,599.30,16.11,0000 0000 0000 0000 000000
2015-10-16 09:57:48,0.05,0.53,0.00,22.22,27.62,30.69,14.64,47.42,1019.51,2034.28,3336.36,3134.27,3409.89,599.84,599.07,16.16,0000 0000 0000 0000 000000
2015-10-16 10:02:49,0.05,0.54,0.00,22.16,27.62,30.70,14.68,47.48,1019.51,2034.50,3335.12,3133.86,3409.08,599.74,599.17,16.21,0000 0000 0000 0000 000000
2015-10-16 10:07:50,0.04,0.54,0.00,22.13,27.62,30.70,14.70,47.41,1019.40,2034.45,3334.45,3133.13,3408.69,599.89,599.33,16.26,0000 0000 0000 0000 000000
2015-10-16 10:12:52,0.06,0.54,0.00,22.13,27.62,30.68,14.74,47.49,1019.27,2034.69,3333.25,3132.51,3407.92,600.32,599.70,16.31,0000 0000 0000 0000 000000
2015-10-16 10:17:53,0.06,0.55,0.00,22.08,27.61,30.68,14.68,47.51,1019.28,2034.68,3331.80,3131.66,3406.98,600.15,599.52,16.36,0000 0000 0000 0000 000000
2015-10-16 10:22:54,0.08,0.55,0.00,22.18,27.61,30.65,14.69,47.41,1019.15,2034.88,3330.43,3130.71,3405.96,600.33,599.49,16.41,0000 0000 0000 0000 000000
2015-10-16 10:27:55,0.07,0.55,0.00,22.14,27.61,30.69,14.66,47.45,1019.11,2034.90,3328.84,3129.67,3404.87,599.82,599.07,16.46,0000 0000 0000 0000 000000
2015-10-16 10:32:56,0.08,0.56,0.00,22.08,27.60,30.68,14.65,47.63,1019.07,2034.90,3327.07,3128.51,3403.66,599.80,599.14,16.51,0000 0000 0000 0000 000000
2015-10-16 10:37:58,0.08,0.56,0.00,22.04,27.60,30.67,14.71,47.62,1019.08,2034.98,3325.11,3127.22,3402.36,600.22,599.74,16.56,0000 0000 0000 0000 000000
2015-10-16 10:42:59,0.06,0.57,0.00,22.03,27.60,30.67,14.68,47.64,1019.08,2034.88,3323.21,3126.03,3400.90,599.92,599.42,16.61,0000 0000 0000 0000 000000
2015-10-16 10:48:00,0.05,0.57,0.00,21.99,27.60,30.68,14.71,47.63,1019.08,2034.80,3322.10,3125.14,3400.00,600.19,599.70,16.66,0000 0000 0000 0000 000000
2015-10-16 10:53:01,0.05,0.57,0.00,21.97,27.60,30.66,14.66,47.51,1019.08,2034.80,3320.95,3124.34,3399.10,599.78,599.35,16.71,0000 0000 0000 0000 000000
2015-10-16 10:58:02,0.02,0.57,0.00,21.95,27.59,30.66,14.70,47.58,1019.07,2034.59,3319.91,3123.78,3398.58,599.90,599.59,16.76,0000 0000 0000 0000 000000
2015-10-16 11:03:03,0.06,0.58,0.00,21.93,27.57,30.66,14.77,47.58,1019.08,2034.73,3319.03,3123.03,3397.98,600.16,599.86,16.81,0000 0000 0000 0000 000000
2015-10-16 11:08:05,0.03,0.58,0.00,21.93,27.57,30.67,14.71,47.63,1019.06,2034.81,3318.48,3122.90,3397.67,600.43,600.17,16.86,0000 0000 0000 0000 000000
2015-10-16 11:13:06,0.03,0.58,0.00,21.92,27.57,30.66,14.68,47.49,1019.06,2034.91,3317.92,3122.23,3397.02,600.13,599.79,16.91,0000 0000 0000 0000 000000
2015-10-16 11:18:07,0.02,0.58,0.00,21.89,27.57,30.68,14.75,47.67,1019.06,2034.90,3317.19,3122.01,3396.96,599.93,599.68,16.96,0000 0000 0000 0000 000000
2015-10-16 11:23:08,0.05,0.58,0.00,21.89,27.55,30.67,14.68,47.55,1019.06,2034.95,3316.19,3121.59,3396.15,599.96,599.80,17.01,0000 0000 0000 0000 000000
2015-10-16 11:28:09,0.01,0.58,0.00,21.88,27.55,30.66,14.75,47.58,1019.05,2034.98,3316.00,3121.20,3396.00,600.02,599.72,17.06,0000 0000 0000 0000 000000
2015-10-16 11:33:11,0.01,0.58,0.00,21.86,27.55,30.66,14.76,47.49,1019.06,2034.97,3315.84,3121.02,3395.99,600.13,600.02,17.11,0000 0000 0000 0000 000000
2015-10-16 11:38:13,0.02,0.58,0.00,21.88,27.55,30.67,14.71,47.51,1019.06,2034.99,3315.07,3120.99,3395.51,600.00,599.92,17.16,0000 0000 0000 0000 000000
2015-10-16 11:43:14,0.04,0.59,0.00,21.87,27.55,30.66,14.62,47.49,1019.06,2034.98,3314.29,3120.29,3395.00,600.20,599.88,17.21,0000 0000 0000 0000 000000
2015-10-16 11:48:15,0.03,0.59,0.00,21.86,27.54,30.64,14.63,47.33,1019.03,2034.99,3313.50,3119.97,3394.50,599.78,599.53,17.26,0000 0000 0000 0000 000000
2015-10-16 11:53:17,0.05,0.59,0.00,21.87,27.54,30.64,14.68,47.45,1018.91,2034.99,3312.34,3119.14,3393.71,600.26,599.98,17.31,0000 0000 0000 0000 000000
2015-10-16 11:58:18,0.06,0.59,0.00,21.85,27.53,30.65,14.72,47.33,1018.89,2034.99,3310.87,3118.22,3392.74,600.07,599.62,17.36,0000 0000 0000 0000 000000
2015-10-16 12:03:19,0.06,0.60,0.00,21.85,27.53,30.64,14.75,47.27,1018.78,2034.99,3309.46,3117.25,3391.75,600.08,599.78,17.41,0000 0000 0000 0000 000000
2015-10-16 12:08:20,0.05,0.60,0.00,21.86,27.53,30.66,14.58,47.15,1018.70,2034.99,3308.07,3116.35,3390.94,599.96,599.51,17.46,0000 0000 0000 0000 000000
2015-10-16 12:13:22,0.07,0.60,0.00,21.85,27.53,30.67,14.69,47.35,1018.66,2034.99,3306.56,3115.46,3389.99,600.08,599.69,17.51,0000 0000 0000 0000 000000
2015-10-16 12:18:23,0.05,0.61,0.00,21.83,27.52,30.67,14.70,47.28,1018.61,2034.99,3305.26,3114.60,3389.07,600.22,599.80,17.56,0000 0000 0000 0000 000000
2015-10-16 12:23:25,0.01,0.61,0.00,21.83,27.52,30.66,14.78,47.54,1018.59,2034.99,3304.85,3114.02,3388.86,599.95,599.56,17.61,0000 0000 0000 0000 000000
2015-10-16 12:28:26,0.02,0.61,0.00,21.82,27.52,30.66,14.65,47.44,1018.58,2035.00,3304.17,3113.99,3388.25,600.19,599.82,17.66,0000 0000 0000 0000 000000
2015-10-16 12:33:27,0.02,0.61,0.00,21.79,27.52,30.67,14.75,47.72,1018.57,2035.00,3303.72,3113.52,3387.99,600.22,599.89,17.71,0000 0000 0000 0000 000000
2015-10-16 12:38:29,0.03,0.61,0.00,21.80,27.52,30.68,14.72,47.67,1018.57,2035.00,3302.77,3113.02,3387.41,599.77,599.33,17.76,0000 0000 0000 0000 000000
2015-10-16 12:43:30,0.05,0.61,0.00,21.78,27.52,30.65,14.75,47.68,1018.57,2035.01,3301.72,3112.30,3386.82,600.06,599.76,17.81,0000 0000 0000 0000 000000
2015-10-16 12:48:31,0.04,0.62,0.00,21.76,27.52,30.66,14.67,47.74,1018.57,2035.01,3300.57,3111.74,3386.03,600.09,599.96,17.86,0000 0000 0000 0000 000000
2015-10-16 12:53:33,0.02,0.62,0.00,21.77,27.52,30.65,14.77,47.75,1018.57,2035.00,3299.95,3111.04,3385.61,600.42,599.92,17.91,0000 0000 0000 0000 000000